Location: *
(1.3500°S, 147.5000°W)
Time: 04:32:15
(UTC+00:00)

Envisat - Pass Details

Date: 28 June 2021
Orbit: 764 x 766 km, 98.2° (Epoch: 03 August)

Event Time Altitude Azimuth Distance (km) Brightness Sun altitude
Rises 14:21:57 0° 24° (NNE) 3,213 7.0 -21.5°
Reaches altitude 10° 14:24:20 10° 31° (NNE) 2,290 6.2 -20.9°
Maximum altitude 14:29:07 43° 102° (ESE) 1,057 4.1 -19.8°
Drops below altitude 10° 14:33:54 10° 173° (S) 2,299 5.3 -18.8°
Sets 14:36:18 0° 180° (S) 3,228 6.0 -18.2°
Enters shadow 14:36:20 - 180° (S) 3,238 6.0 -18.2°
